Starlink 33701

operational
NORAD ID: 63464 Int'l Des: 2025-070 Owner: SPXS Country: US Constellation: starlink
LEOCIRCULAR

About Starlink 33701

Description loading...

Live Position

Loading 3D Globe...

Upcoming Passes

Altitude History

Altitude vs Time

uPlot chart will show altitude changes over time

Two-Line Element Set

1 63464U 25070E 25352.29423420 .00021603 00000-0 79190-3 0 9991
2 63464 43.0012 359.8621 0000663 271.5427 88.5349 15.27594771 40528
Epoch: Dec 18, 2025 • Age: 15 hours

Current Status

Altitude 493.5 km
Velocity 7.62 km/s
Sub-Earth Point -37.44°S, 123.51°W
Launch Date Apr 6, 2025
Age 0.7 years
Type internet

Technical Details

Classification Payload
Mass 575.00 kg
Dry Mass 530.00 kg
Total Mass 575.00 kg
Length 0.30 m
Diameter 4.10 m
Span 29.00 m
Shape Box + pan
Manufacturer SPXS
Bus Type Starlink V2MO
Phase Status In Orbit
Owner/State SPXS/US

Large Constellations

Loading constellations...